Погода в Торошине

Россия / Псковская область     57°55′56″N   28°35′44″E
темп.,
°C
ветер,
м/с
пор.,
м/с
влажн.,
%
обл.,
%
осадки,
мм/ч
давл.,
гПа
погр.,
м
12 апреля, пн
пн1200:00+6вюв399563 0.0 1026229
03:00+6юв3109454 0.0 1026235
06:00+6ююв4139197 0.0 1025277
09:00+9ююв4147177 0.0 1025516
12:00+13ю5115386 0.0 1025986
15:00+16ю5104590 0.0 10231599
18:00+15ююв49496 0.0 10211635
21:00+9юв311735 0.0 1021219
13 апреля, вт
вт1300:00+8ююв311775 0.0 1020236
03:00+6ююв310797 0.0 1020277
06:00+6ююв2781100 0.0 1019190
09:00+9ю3572100 0.0 1020286
12:00+7зюз2589100 0.2 1021321
15:00+5зсз3692100 0.7 1022386
18:00+4сз3790100 0.6 1023379
21:00+4сз2687100 0.9 1022249
14 апреля, ср
ср1400:00+4ссз1479100 0.1 1022148
03:00+3ссз2871100 0.1 1022306
06:00+2ссз2776100 0.0 1022242
09:00+3ссз2676100 0.0 1022293
12:00+7с3457100 0.0 1022852
15:00+9с3448100 0.0 10211348
18:00+8ссв3451100 0.0 10221242
21:00+5с386295 0.0 1023390
15 апреля, чт
чт1500:00+3ссв3969100 0.0 1024345
03:00+2ссв3973100 0.0 1024321
06:00+1ссв3976100 0.0 1023285
09:00+4св4867100 0.0 1024513
12:00+7ссв575191 0.0 10241171
15:00+9ссв574499 0.0 10241386
18:00+8ссв4849100 0.0 10241308
21:00+4св4115724 0.0 1025680
16 апреля, пт
пт1600:00+2св413670 0.0 1026453
03:00+1св414720 0.0 1027458
06:00+1св414780 0.0 1028493
09:00+5всв513600 0.0 1030882
12:00+9всв69380 0.0 10311328
15:00+11св68330 0.0 10311626
18:00+10св48420 0.0 10321666
21:00+6св310571 0.0 1034378